TimeMST,TemperatureF,Dew PointF,Humidity,Sea Level PressureIn,VisibilityMPH,Wind Direction,Wind SpeedMPH,Gust SpeedMPH,PrecipitationIn,Events,Conditions,WindDirDegrees,DateUTC
12:53 AM,30.0,26.1,85,29.57,10.0,WNW,4.6,-,N/A,,Overcast,290,2012-12-12 07:53:00
1:53 AM,28.0,25.0,88,29.61,10.0,NW,5.8,-,N/A,,Overcast,310,2012-12-12 08:53:00
2:53 AM,26.1,24.1,92,29.61,10.0,NE,6.9,-,N/A,,Mostly Cloudy,50,2012-12-12 09:53:00
3:53 AM,24.1,21.9,91,29.63,10.0,SSE,5.8,-,N/A,,Scattered Clouds,160,2012-12-12 10:53:00
4:53 AM,25.0,23.0,92,29.62,10.0,ESE,4.6,-,N/A,,Overcast,110,2012-12-12 11:53:00
5:53 AM,23.0,21.0,92,29.65,10.0,East,9.2,-,N/A,,Partly Cloudy,100,2012-12-12 12:53:00
6:53 AM,25.0,23.0,92,29.65,10.0,ENE,9.2,-,N/A,,Overcast,70,2012-12-12 13:53:00
7:53 AM,25.0,21.9,88,29.66,10.0,East,9.2,-,N/A,,Mostly Cloudy,100,2012-12-12 14:53:00
8:53 AM,26.1,23.0,88,29.68,10.0,ESE,8.1,-,N/A,,Clear,110,2012-12-12 15:53:00
9:53 AM,26.1,23.0,88,29.71,10.0,East,9.2,-,N/A,,Clear,100,2012-12-12 16:53:00
10:53 AM,28.0,24.1,85,29.71,10.0,East,12.7,-,N/A,,Clear,100,2012-12-12 17:53:00
11:53 AM,28.9,25.0,85,29.72,10.0,SE,10.4,-,N/A,,Clear,130,2012-12-12 18:53:00
12:53 PM,27.0,24.1,89,29.72,10.0,East,12.7,-,N/A,,Clear,100,2012-12-12 19:53:00
1:53 PM,27.0,25.0,92,29.74,10.0,East,9.2,-,N/A,,Overcast,100,2012-12-12 20:53:00
2:53 PM,27.0,24.1,89,29.76,10.0,East,8.1,-,N/A,,Partly Cloudy,90,2012-12-12 21:53:00
3:53 PM,26.1,23.0,88,29.80,10.0,East,3.5,-,N/A,,Overcast,80,2012-12-12 22:53:00
4:53 PM,23.0,21.0,92,29.83,10.0,ESE,5.8,-,N/A,,Overcast,120,2012-12-12 23:53:00
5:02 PM,21.2,19.4,93,29.73,9.0,ESE,6.9,-,N/A,,Overcast,110,2012-12-13 00:02:00
5:10 PM,23.0,21.2,93,29.74,8.0,ESE,5.8,-,N/A,,Overcast,110,2012-12-13 00:10:00
5:53 PM,23.0,21.9,96,29.88,10.0,Calm,Calm,-,N/A,,Overcast,0,2012-12-13 00:53:00
6:36 PM,23.0,21.2,93,29.79,8.0,Calm,Calm,-,N/A,,Overcast,0,2012-12-13 01:36:00
6:53 PM,24.1,21.9,91,29.89,7.0,Calm,Calm,-,N/A,,Overcast,0,2012-12-13 01:53:00
7:53 PM,25.0,23.0,92,29.92,6.0,East,4.6,-,N/A,,Overcast,100,2012-12-13 02:53:00
8:51 PM,24.8,21.2,86,29.84,5.0,Calm,Calm,-,N/A,,Overcast,0,2012-12-13 03:51:00
8:53 PM,24.1,21.9,91,29.94,5.0,Calm,Calm,-,N/A,,Overcast,0,2012-12-13 03:53:00
9:46 PM,24.8,21.2,86,29.85,6.0,East,6.9,-,0.00,Snow,Light Snow,80,2012-12-13 04:46:00
9:53 PM,24.1,21.9,91,29.96,5.0,East,8.1,-,0.00,Snow,Light Snow,80,2012-12-13 04:53:00
10:24 PM,23.0,21.2,93,29.86,2.5,NE,4.6,-,0.00,Snow,Light Snow,50,2012-12-13 05:24:00
10:43 PM,23.0,19.4,86,29.86,1.2,ENE,5.8,-,0.00,Snow,Light Snow,60,2012-12-13 05:43:00
10:53 PM,21.9,19.9,92,29.97,1.2,ENE,4.6,-,0.00,Snow,Light Snow,70,2012-12-13 05:53:00
11:03 PM,21.2,19.4,93,29.87,1.5,ENE,4.6,-,N/A,Snow,Light Snow,70,2012-12-13 06:03:00
11:28 PM,21.2,19.4,93,29.87,3.0,ENE,4.6,-,0.01,Snow,Light Snow,60,2012-12-13 06:28:00
11:53 PM,21.9,21.0,96,29.97,4.0,SE,3.5,-,0.01,,Overcast,140,2012-12-13 06:53:00